Weather History for Fulton Cnty AP, Rochester, IN, IN

Change the Weather History Date:

Friday, April 11, 2014

  Actual Average Record
Temperature  
Mean Temperature 55 °F -  
Max Temperature 69 °F 54 °F 69 °F (2014)
Min Temperature 41 °F 32 °F 41 °F (2014)
Degree Days  
Heating Degree Days 10    
Growing Degree Days 5 (Base 50)    
Moisture  
Dew Point 37 °F    
Average Humidity 60    
Maximum Humidity 100    
Minimum Humidity 20    
Precipitation  
Precipitation 0.00 in - - ()
Sea Level Pressure  
Sea Level Pressure 30.00 in    
Wind  
Wind Speed 2 mph (WSW)    
Max Wind Speed 10 mph    
Max Gust Speed -    
Visibility 8 miles    
Events Fog , Thunderstorm    
Averages and records for this station are not official NWS values.
T = Trace of Precipitation, MM = Missing Value Source: NWS Daily Summary

Daily Weather History Graph

Daily Weather History Graph

Search for Another Location

Airport:

Trip Planner

Search our weather history database for the weather conditions in past years. The results will help you decide how hot, cold, wet, or windy it might be!

Date:

Astronomy

Apr. 11, 2014 Rise Set
Actual Time 7:11 AM EDT 8:20 PM EDT
Civil Twilight 6:43 AM EDT 8:48 PM EDT
Nautical Twilight 6:09 AM EDT 9:22 PM EDT
Astronomical Twilight 5:34 AM EDT 9:58 PM EDT
Moon 4:58 PM EDT (4/11) 5:08 AM EDT (4/11)
Length of Visible Light 14h 05m
Length of Day
13h 08m
Waxing Gibbous, 87% of the Moon is Illuminated
Apr 11
Waxing Gibbous
Apr 15
Full
Apr 22
Last Quarter
Apr 29
New
May 6
First Quarter

Hourly Weather History & Observations

Time (EDT) Temp. Windchill Dew Point Humidity Pressure Visibility Wind Dir Wind Speed Gust Speed Precip Events Conditions
12:15 AM 50.0 °F - 48.2 °F 94% 29.93 in 7.0 mi Calm Calm - N/A   Clear
12:35 AM 50.0 °F - 50.0 °F 100% 29.92 in 7.0 mi Calm Calm - N/A   Clear
12:55 AM 46.4 °F - 46.4 °F 100% 29.94 in 5.0 mi Calm Calm - N/A   Clear
1:15 AM 46.4 °F 45.2 °F 46.4 °F 100% 29.95 in 5.0 mi South 3.5 mph - N/A   Clear
1:35 AM 46.4 °F - 46.4 °F 100% 29.96 in 7.0 mi Calm Calm - N/A   Clear
1:55 AM 46.4 °F - 46.4 °F 100% 29.96 in 4.0 mi Calm Calm - N/A   Clear
2:15 AM 46.4 °F 44.3 °F 46.4 °F 100% 29.95 in 5.0 mi NNE 4.6 mph - N/A   Scattered Clouds
2:35 AM 46.4 °F 44.3 °F 46.4 °F 100% 29.95 in 5.0 mi North 4.6 mph - N/A   Scattered Clouds
2:55 AM 44.6 °F - 44.6 °F 100% 29.95 in 4.0 mi Calm Calm - N/A   Scattered Clouds
3:15 AM 44.6 °F - 44.6 °F 100% 29.94 in 4.0 mi Calm Calm - N/A Thunderstorm Scattered Clouds
3:35 AM 46.4 °F - 46.4 °F 100% 29.94 in 5.0 mi Calm Calm - N/A   Scattered Clouds
3:55 AM 46.4 °F - 46.4 °F 100% 29.95 in 7.0 mi Calm Calm - N/A   Scattered Clouds
4:15 AM 46.4 °F - 46.4 °F 100% 29.96 in 5.0 mi Calm Calm - N/A   Clear
4:35 AM 46.4 °F - 46.4 °F 100% 29.96 in 5.0 mi Calm Calm - N/A   Clear
4:55 AM 46.4 °F - 46.4 °F 100% 29.97 in 5.0 mi Calm Calm - N/A   Clear
5:15 AM 46.4 °F - 46.4 °F 100% 29.97 in 5.0 mi Calm Calm - N/A   Clear
5:35 AM 44.6 °F - 44.6 °F 100% 29.97 in 0.8 mi Calm Calm - N/A   Mist
5:55 AM 44.6 °F - 44.6 °F 100% 29.96 in 0.2 mi Calm Calm - N/A Fog Fog
6:15 AM 42.8 °F - 42.8 °F 100% 29.97 in 0.2 mi Calm Calm - N/A Fog Fog
6:35 AM 41.0 °F 39.0 °F 41.0 °F 100% 29.97 in - North 3.5 mph - N/A   Unknown
6:55 AM 41.0 °F 39.0 °F 41.0 °F 100% 29.97 in 0.2 mi North 3.5 mph - N/A Fog Fog
7:35 AM 44.6 °F - 44.6 °F 100% 30.00 in 0.2 mi Calm Calm - N/A Fog Fog
7:55 AM 42.8 °F - 42.8 °F 100% 30.01 in 0.2 mi Calm Calm - N/A Fog Fog
8:15 AM 42.8 °F - 42.8 °F 100% 30.01 in 0.2 mi Calm Calm - N/A Fog Fog
8:35 AM 42.8 °F - 42.8 °F 100% 30.02 in 0.2 mi Calm Calm - N/A Fog Fog
8:55 AM 44.6 °F 43.1 °F 44.6 °F 100% 30.02 in 1.8 mi NNE 3.5 mph - N/A   Scattered Clouds
9:15 AM 46.4 °F - 46.4 °F 100% 30.02 in 5.0 mi Calm Calm - N/A   Clear
9:35 AM 46.4 °F 45.2 °F 46.4 °F 100% 30.02 in 10.0 mi NNE 3.5 mph - N/A   Clear
10:15 AM 53.6 °F - 41.0 °F 62% 30.03 in 10.0 mi ENE 4.6 mph - N/A   Clear
10:35 AM 55.4 °F - 41.0 °F 58% 30.03 in 10.0 mi NE 3.5 mph - N/A   Clear
10:55 AM 57.2 °F - 41.0 °F 55% 30.04 in 10.0 mi North 4.6 mph - N/A   Clear
11:15 AM 59.0 °F - 41.0 °F 51% 30.05 in 10.0 mi Calm Calm - N/A   Clear
11:35 AM 60.8 °F - 37.4 °F 42% 30.05 in 10.0 mi Calm Calm - N/A   Clear
11:55 AM 60.8 °F - 33.8 °F 36% 30.04 in 10.0 mi Calm Calm - N/A   Clear
12:15 PM 64.4 °F - 33.8 °F 32% 30.05 in 10.0 mi SSW 4.6 mph - N/A   Clear
12:35 PM 64.4 °F - 32.0 °F 30% 30.04 in 10.0 mi South 4.6 mph - N/A   Clear
12:55 PM 64.4 °F - 32.0 °F 30% 30.03 in 10.0 mi SSE 4.6 mph - N/A   Clear
1:15 PM 66.2 °F - 26.6 °F 23% 30.03 in 10.0 mi WNW 8.1 mph - N/A   Clear
1:35 PM 66.2 °F - 24.8 °F 21% 30.03 in 10.0 mi Calm Calm - N/A   Clear
1:55 PM 68.0 °F - 26.6 °F 21% 30.02 in 10.0 mi WNW 4.6 mph - N/A   Clear
2:15 PM 68.0 °F - 26.6 °F 21% 30.02 in 10.0 mi South 3.5 mph - N/A   Clear
2:35 PM 68.0 °F - 26.6 °F 21% 30.02 in 10.0 mi West 4.6 mph - N/A   Clear
2:55 PM 68.0 °F - 28.4 °F 23% 30.02 in 10.0 mi SSW 3.5 mph - N/A   Clear
3:15 PM 68.0 °F - 26.6 °F 21% 30.02 in 10.0 mi WNW 4.6 mph - N/A   Clear
3:35 PM 69.8 °F - 28.4 °F 21% 30.01 in 10.0 mi West 10.4 mph - N/A   Clear
3:55 PM 69.8 °F - 28.4 °F 21% 30.00 in 10.0 mi SW 10.4 mph - N/A   Clear
4:15 PM 69.8 °F - 26.6 °F 20% 30.00 in 10.0 mi NW 3.5 mph - N/A   Clear
4:35 PM 69.8 °F - 26.6 °F 20% 30.00 in 10.0 mi West 5.8 mph - N/A   Clear
4:55 PM 69.8 °F - 26.6 °F 20% 30.00 in 10.0 mi SSW 6.9 mph - N/A   Clear
5:15 PM 69.8 °F - 28.4 °F 21% 30.00 in 10.0 mi West 5.8 mph - N/A   Clear
5:35 PM 69.8 °F - 30.2 °F 23% 30.00 in 10.0 mi WSW 6.9 mph - N/A   Clear
5:55 PM 69.8 °F - 28.4 °F 21% 30.00 in 10.0 mi WSW 8.1 mph - N/A   Clear
6:15 PM 69.8 °F - 28.4 °F 21% 30.00 in 10.0 mi West 9.2 mph - N/A   Clear
6:35 PM 68.0 °F - 28.4 °F 23% 30.00 in 10.0 mi West 8.1 mph - N/A   Clear
6:55 PM 68.0 °F - 28.4 °F 23% 30.01 in 10.0 mi SW 9.2 mph - N/A   Clear
7:15 PM 68.0 °F - 28.4 °F 23% 30.01 in 10.0 mi WSW 6.9 mph - N/A   Clear
7:35 PM 66.2 °F - 28.4 °F 24% 30.01 in 10.0 mi WSW 5.8 mph - N/A   Clear
7:55 PM 64.4 °F - 28.4 °F 26% 30.02 in 10.0 mi West 5.8 mph - N/A   Clear
8:15 PM 64.4 °F - 28.4 °F 26% 30.02 in 10.0 mi SW 3.5 mph - N/A   Clear
8:35 PM 62.6 °F - 30.2 °F 30% 30.02 in 10.0 mi SSW 3.5 mph - N/A   Clear
8:55 PM 60.8 °F - 32.0 °F 34% 30.02 in 10.0 mi Calm Calm - N/A   Clear
9:15 PM 59.0 °F - 35.6 °F 42% 30.03 in 10.0 mi Calm Calm - N/A   Clear
9:35 PM 57.2 °F - 37.4 °F 48% 30.04 in 10.0 mi South 3.5 mph - N/A   Clear
9:55 PM 55.4 °F - 37.4 °F 51% 30.04 in 10.0 mi South 3.5 mph - N/A   Clear
10:15 PM 55.4 °F - 37.4 °F 51% 30.05 in 10.0 mi Calm Calm - N/A   Clear
10:35 PM 51.8 °F - 39.2 °F 62% 30.05 in 10.0 mi Calm Calm - N/A   Clear
10:55 PM 53.6 °F - 41.0 °F 62% 30.05 in 10.0 mi South 4.6 mph - N/A   Clear
11:15 PM 53.6 °F - 37.4 °F 54% 30.05 in 10.0 mi South 4.6 mph - N/A   Clear
11:35 PM 55.4 °F - 37.4 °F 51% 30.04 in 10.0 mi South 3.5 mph - N/A   Clear
11:55 PM 55.4 °F - 35.6 °F 47% 30.04 in 10.0 mi South 4.6 mph - N/A   Clear